Madison, SD

4:27 AM CDT on September 24, 2017 (GMT -0500)
Madison Municipal

Weather History for KMDS - March, 2014

Change the Weather History Date:

Tuesday, March 4, 2014

  Actual Average Record
Temperature  
Mean Temperature 8 °F -  
Max Temperature 17 °F 36 °F 46 °F (2016)
Min Temperature 0 °F 15 °F -7 °F (2015)
Degree Days  
Heating Degree Days 56    
Moisture  
Dew Point 8 °F    
Average Humidity 93    
Maximum Humidity 100    
Minimum Humidity 78    
Precipitation  
Precipitation 1.05 in - - ()
Sea Level Pressure  
Sea Level Pressure 30.04 in    
Wind  
Wind Speed 9 mph (ENE)    
Max Wind Speed 20 mph    
Max Gust Speed 23 mph    
Visibility 8 miles    
Events Snow    
Averages and records for this station are not official NWS values.
T = Trace of Precipitation, MM = Missing Value Source: NWS Daily Summary

Daily Weather History Graph

Daily Weather History Graph

Search for Another Location

Airport or City:

Trip Planner

Search our weather history database for the weather conditions in past years. The results will help you decide how hot, cold, wet, or windy it might be!

Date:

Astronomy

Mar. 04, 2014 Rise Set
Actual Time 7:00 AM CST 6:20 PM CST
Civil Twilight 6:31 AM CST 6:49 PM CST
Nautical Twilight 5:57 AM CST 7:23 PM CST
Astronomical Twilight 5:24 AM CST 7:56 PM CST
Moon 8:38 AM CST (3/4) 10:39 PM CST (3/4)
Length of Visible Light 12h 18m
Length of Day
11h 20m
Waxing Crescent, 15% of the Moon is Illuminated
Mar 4
Waxing Crescent
Mar 8
First Quarter
Mar 16
Full
Mar 23
Last Quarter
Mar 30
New

Hourly Weather History & Observations

Time (CST) Temp. Windchill Dew Point Humidity Pressure Visibility Wind Dir Wind Speed Gust Speed Precip Events Conditions
12:05 AM 6.8 °F -4.8 °F 1.4 °F 79% 30.01 in 10.0 mi SE 6.9 mph - N/A   Clear
12:25 AM 6.8 °F -3.5 °F 1.4 °F 79% 30.01 in 10.0 mi SSE 5.8 mph - N/A   Partly Cloudy
12:45 AM 6.8 °F - 1.4 °F 79% 30.01 in 10.0 mi Calm Calm - N/A   Clear
1:05 AM 5.0 °F -4.1 °F -0.4 °F 78% 30.01 in 10.0 mi East 4.6 mph - N/A   Clear
1:25 AM 1.4 °F -11.3 °F -0.4 °F 92% 30.00 in 10.0 mi East 6.9 mph - N/A   Clear
1:45 AM 3.2 °F -6.2 °F -0.4 °F 85% 30.01 in 10.0 mi East 4.6 mph - N/A   Clear
2:05 AM 3.2 °F -9.1 °F -0.4 °F 85% 30.00 in 10.0 mi ESE 6.9 mph - N/A   Clear
2:25 AM 3.2 °F -6.2 °F -0.4 °F 85% 30.00 in 10.0 mi East 4.6 mph - N/A   Clear
2:45 AM 1.4 °F -8.3 °F -0.4 °F 92% 30.00 in 10.0 mi East 4.6 mph - N/A   Clear
3:05 AM 1.4 °F -9.9 °F -0.4 °F 92% 29.99 in 10.0 mi East 5.8 mph - N/A   Clear
3:25 AM 1.4 °F -8.3 °F -0.4 °F 92% 29.99 in 10.0 mi ENE 4.6 mph - N/A   Clear
3:45 AM -0.4 °F -12.0 °F -0.4 °F 100% 29.99 in 10.0 mi ENE 5.8 mph - N/A   Clear
4:05 AM -0.4 °F -12.0 °F -0.4 °F 100% 29.99 in 10.0 mi ENE 5.8 mph - N/A   Clear
4:25 AM -0.4 °F -13.4 °F -0.4 °F 100% 30.00 in 10.0 mi NE 6.9 mph - N/A   Clear
4:45 AM -0.4 °F -10.4 °F -0.4 °F 100% 30.01 in 10.0 mi ENE 4.6 mph - N/A   Clear
5:05 AM -0.4 °F -16.7 °F -0.4 °F 100% 30.00 in 10.0 mi ENE 10.4 mph - N/A   Clear
5:25 AM 1.4 °F -14.5 °F -0.4 °F 92% 29.99 in 10.0 mi ENE 10.4 mph - N/A   Clear
5:45 AM 1.4 °F -12.5 °F -0.4 °F 92% 29.99 in 10.0 mi ENE 8.1 mph - N/A   Clear
6:05 AM -0.4 °F - -0.4 °F 100% 30.01 in 10.0 mi Calm Calm - N/A   Clear
6:25 AM -0.4 °F -13.4 °F -0.4 °F 100% 30.01 in 10.0 mi ENE 6.9 mph - N/A   Clear
6:45 AM -0.4 °F -12.0 °F -0.4 °F 100% 30.03 in 10.0 mi NE 5.8 mph - N/A   Clear
7:05 AM 1.4 °F -13.5 °F -0.4 °F 92% 30.01 in 10.0 mi ENE 9.2 mph - N/A   Clear
7:25 AM 3.2 °F -7.8 °F 1.4 °F 92% 30.03 in 10.0 mi ENE 5.8 mph - N/A   Scattered Clouds
7:45 AM 5.0 °F -9.1 °F 1.4 °F 85% 30.02 in 10.0 mi ENE 9.2 mph - N/A   Partly Cloudy
8:05 AM 5.0 °F -11.6 °F 3.2 °F 92% 30.02 in 10.0 mi ENE 12.7 mph - N/A   Clear
8:25 AM 6.8 °F -10.0 °F 5.0 °F 92% 30.01 in 10.0 mi ENE 13.8 mph - N/A   Partly Cloudy
8:45 AM 8.6 °F -4.7 °F 6.8 °F 92% 30.03 in 10.0 mi ENE 9.2 mph - N/A   Partly Cloudy
9:05 AM 8.6 °F -7.7 °F 6.8 °F 92% 30.03 in 10.0 mi ENE 13.8 mph - N/A   Clear
9:25 AM 10.4 °F -6.0 °F 6.8 °F 85% 30.03 in 10.0 mi ENE 15.0 mph - N/A   Clear
9:45 AM 10.4 °F -6.6 °F 6.8 °F 85% 30.02 in 10.0 mi ENE 16.1 mph - N/A   Clear
10:05 AM 12.2 °F -4.3 °F 8.6 °F 85% 30.02 in 10.0 mi East 16.1 mph - N/A   Clear
10:25 AM 12.2 °F -4.8 °F 8.6 °F 85% 30.02 in 10.0 mi ENE 17.3 mph 23.0 mph N/A   Clear
10:45 AM 14.0 °F -0.8 °F 8.6 °F 79% 30.02 in 10.0 mi East 13.8 mph - N/A   Clear
11:05 AM 14.0 °F -0.8 °F 10.4 °F 86% 30.03 in 10.0 mi East 13.8 mph - N/A   Clear
11:25 AM 14.0 °F -2.0 °F 10.4 °F 86% 30.01 in 10.0 mi East 16.1 mph - N/A   Clear
11:45 AM 15.8 °F 0.3 °F 10.4 °F 79% 30.00 in 10.0 mi East 16.1 mph 21.9 mph N/A   Partly Cloudy
12:05 PM 15.8 °F -1.1 °F 12.2 °F 86% 30.00 in 10.0 mi East 19.6 mph - N/A   Clear
12:25 PM 15.8 °F 0.3 °F 12.2 °F 86% 30.01 in 10.0 mi East 16.1 mph 23.0 mph N/A   Partly Cloudy
12:45 PM 15.8 °F 2.7 °F 12.2 °F 86% 30.02 in 10.0 mi East 11.5 mph - N/A   Partly Cloudy
1:05 PM 15.8 °F 0.9 °F 12.2 °F 86% 30.01 in 10.0 mi East 15.0 mph - N/A   Partly Cloudy
1:25 PM 17.6 °F 2.2 °F 14.0 °F 86% 29.99 in 10.0 mi East 17.3 mph - N/A Snow Light Snow
1:45 PM 17.6 °F 3.2 °F 14.0 °F 86% 30.00 in 10.0 mi East 15.0 mph - N/A   Partly Cloudy
2:05 PM 17.6 °F 3.2 °F 14.0 °F 86% 30.01 in 10.0 mi East 15.0 mph - N/A Snow Light Snow
2:25 PM 17.6 °F 2.7 °F 15.8 °F 93% 30.00 in 10.0 mi East 16.1 mph - N/A   Mostly Cloudy
2:45 PM 17.6 °F 3.7 °F 15.8 °F 93% 30.01 in 10.0 mi East 13.8 mph - N/A   Mostly Cloudy
3:05 PM 17.6 °F 3.7 °F 15.8 °F 93% 30.02 in 10.0 mi East 13.8 mph - N/A   Mostly Cloudy
3:25 PM 17.6 °F 3.7 °F 17.6 °F 100% 30.02 in 10.0 mi ENE 13.8 mph - N/A   Mostly Cloudy
3:45 PM 15.8 °F 0.9 °F 15.8 °F 100% 30.03 in 9.0 mi East 15.0 mph - N/A Snow Light Snow
4:05 PM 15.8 °F 1.4 °F 15.8 °F 100% 30.04 in 10.0 mi ENE 13.8 mph - N/A   Overcast
4:25 PM 15.8 °F 0.3 °F 15.8 °F 100% 30.03 in 10.0 mi ENE 16.1 mph - N/A   Overcast
4:45 PM 15.8 °F 0.9 °F 15.8 °F 100% 30.04 in 10.0 mi ENE 15.0 mph - N/A   Overcast
5:05 PM 15.8 °F 0.3 °F 15.8 °F 100% 30.04 in 9.0 mi East 16.1 mph - N/A Snow Light Snow
5:25 PM 15.8 °F 0.9 °F 15.8 °F 100% 30.04 in 4.0 mi ENE 15.0 mph - N/A Snow Light Snow
5:45 PM 14.0 °F -1.4 °F 14.0 °F 100% 30.04 in 5.0 mi ENE 15.0 mph 19.6 mph 0.01 in Snow Light Snow
6:05 PM 14.0 °F -0.8 °F 14.0 °F 100% 30.04 in 2.5 mi ENE 13.8 mph - N/A Snow Light Snow
6:25 PM 14.0 °F -2.0 °F 14.0 °F 100% 30.04 in 3.0 mi ENE 16.1 mph - 0.03 in Snow Light Snow
6:45 PM 14.0 °F -2.5 °F 14.0 °F 100% 30.06 in 10.0 mi ENE 17.3 mph - 0.04 in Snow Light Snow
7:05 PM 14.0 °F -2.5 °F 14.0 °F 100% 30.06 in 8.0 mi ENE 17.3 mph 21.9 mph N/A Snow Light Snow
7:25 PM 14.0 °F -0.8 °F 14.0 °F 100% 30.08 in 10.0 mi ENE 13.8 mph - 0.01 in Snow Light Snow
7:45 PM 14.0 °F -0.8 °F 14.0 °F 100% 30.08 in 5.0 mi ENE 13.8 mph - 0.03 in Snow Light Snow
8:05 PM 14.0 °F 0.5 °F 14.0 °F 100% 30.10 in 2.5 mi ENE 11.5 mph - 0.01 in Snow Light Snow
8:25 PM 14.0 °F 2.0 °F 14.0 °F 100% 30.11 in 1.8 mi ENE 9.2 mph - 0.06 in Snow Light Snow
8:45 PM 14.0 °F 1.2 °F 14.0 °F 100% 30.12 in 1.0 mi ENE 10.4 mph - 0.18 in Snow Light Snow
9:05 PM 12.2 °F -3.1 °F 12.2 °F 100% 30.12 in 1.0 mi ENE 13.8 mph - 0.02 in Snow Light Snow
9:25 PM 12.2 °F -1.0 °F 12.2 °F 100% 30.14 in 1.5 mi ENE 10.4 mph - 0.16 in Snow Light Snow
9:45 PM 12.2 °F -1.0 °F 12.2 °F 100% 30.15 in 0.5 mi ENE 10.4 mph - 0.53 in Snow Snow
10:05 PM 12.2 °F -2.5 °F 12.2 °F 100% 30.15 in 0.8 mi ENE 12.7 mph - 0.11 in Snow Light Snow
10:25 PM 12.2 °F -0.2 °F 12.2 °F 100% 30.16 in 3.0 mi ENE 9.2 mph - 0.23 in Snow Light Snow
10:45 PM 12.2 °F - 12.2 °F 100% 30.16 in 4.0 mi North - - 0.26 in Snow Light Snow
11:05 PM 12.2 °F -0.2 °F 12.2 °F 100% 30.17 in 9.0 mi ENE 9.2 mph - N/A Snow Light Snow
11:25 PM 10.4 °F -3.3 °F 10.4 °F 100% 30.17 in 10.0 mi ENE 10.4 mph - N/A Snow Light Snow
11:45 PM 12.2 °F -0.2 °F 12.2 °F 100% 30.18 in 10.0 mi ENE 9.2 mph - N/A   Unknown